Location: Calimesa Mobile Home Ranch
(33.9736°N, 117.0370°W)
Time: 22:17:16
(UTC+00:00)

UNISAT 6 - Visible Passes

Search period start: 19 September 2024 00:00
Search period end: 29 September 2024 00:00
Orbit: 589 x 661 km, 97.7° (Epoch: 19 September)

Date Brightness Start Highest point End Pass type
(mag) Time Alt. Az. Time Alt. Az. Time Alt. Az.
19 Sep ? 10:22:19 10° ENE 10:23:13 11° ENE 10:24:07 10° NE visible
19 Sep ? 11:59:27 48° WNW 11:59:27 48° WNW 12:03:03 10° NNW visible
20 Sep ? 10:41:33 17° ENE 10:41:55 18° ENE 10:44:45 10° NNE visible
20 Sep ? 12:18:51 27° WNW 12:18:51 27° WNW 12:21:38 10° NW visible
21 Sep ? 11:00:55 28° ENE 11:00:55 28° ENE 11:04:20 10° NNE visible
21 Sep ? 12:38:13 16° WNW 12:38:13 16° WNW 12:39:50 10° NW visible
22 Sep ? 11:20:18 42° NE 11:20:18 42° NE 11:23:35 10° N visible
23 Sep ? 11:39:41 43° N 11:39:41 43° N 11:42:36 10° N visible
24 Sep ? 10:21:45 10° ENE 10:21:45 10° ENE 10:22:17 10° NE visible
24 Sep ? 11:59:02 30° NW 11:59:02 30° NW 12:01:24 10° NNW visible
25 Sep ? 10:41:07 16° NE 10:41:07 16° NE 10:43:00 10° NNE visible
25 Sep ? 12:18:24 19° NW 12:18:24 19° NW 12:19:57 10° NNW visible
26 Sep ? 11:00:28 22° NE 11:00:28 22° NE 11:02:34 10° NNE visible
26 Sep ? 12:37:45 12° NW 12:37:45 12° NW 12:38:09 10° NW visible
27 Sep ? 11:19:49 25° NNE 11:19:49 25° NNE 11:21:46 10° N visible
28 Sep ? 11:39:09 22° N 11:39:09 22° N 11:40:45 10° N visible
